Lapse_Rate
3.4 3.6 3.6 3.5 3.3 3.3 3.2 3.1 2.8 2.8 2.9 2.9 3.0 3.1 3.6 4.1 4.4 4.7 4.8 4.8 4.8 4.6 4.4 4.2 4.3 4.2 4.1 4.5 4.6 4.5 5.1 3.2
2.4 3.1 3.0 3.3 2.9 3.3 3.5 3.4 3.1 3.1 3.1 3.1 3.2 3.3 3.7 4.1 4.6 4.8 4.8 4.8 4.6 4.3 4.2 4.0 4.2 4.0 3.8 3.9 4.4 4.8 5.5 5.1
3.7 2.6 2.9 3.0 3.3 3.0 3.4 3.5 3.5 3.4 3.4 3.3 3.0 3.0 3.4 4.1 4.3 4.7 4.7 4.7 4.4 4.2 4.0 3.9 3.8 3.5 3.2 3.7 4.3 4.6 5.6 5.0
3.4 3.9 3.2 3.5 4.7 3.8 2.8 3.3 3.0 2.7 3.2 2.7 2.7 3.4 3.4 4.1 4.2 4.7 4.8 4.7 4.4 4.2 3.9 3.6 3.1 2.8 2.5 3.5 3.9 4.9 5.4 4.5
2.6 4.3 3.9 3.8 4.0 3.1 3.5 3.2 3.2 3.1 3.6 3.4 3.2 4.0 3.9 4.1 3.9 4.2 3.9 4.1 3.6 3.5 3.2 2.6 3.0 3.2 3.0 3.2 4.4 5.5 5.9 4.6
4.0 3.0 4.9 4.1 3.9 3.3 3.4 4.6 3.8 3.7 3.8 3.9 3.9 3.4 3.1 3.5 3.4 3.3 3.5 3.2 3.0 2.9 2.6 3.0 3.5 4.1 4.5 4.6 5.0 5.9 5.8 4.7
4.8 4.3 4.1 4.7 4.2 4.0 3.4 4.3 4.1 4.8 4.4 4.5 4.4 4.0 3.8 3.6 4.0 4.1 4.1 3.7 3.6 2.9 2.9 3.4 3.3 4.4 5.1 5.4 6.0 6.5 5.9 3.9
2.7 3.4 4.7 3.9 4.3 4.0 4.1 3.5 4.4 4.9 5.1 5.2 4.7 4.6 3.3 4.3 4.7 4.6 4.2 4.5 4.2 4.0 3.6 3.7 3.6 4.3 5.3 6.2 6.2 7.3 6.3 4.2
2.6 1.7 1.9 3.1 4.1 4.5 5.0 4.2 4.4 4.2 5.2 5.2 5.2 4.8 3.8 4.3 5.0 4.4 4.4 4.6 4.5 4.6 3.9 4.3 4.2 5.2 5.4 5.2 6.3 6.8 6.6 5.4
1.3 2.3 1.2 1.1 1.7 4.0 4.2 3.9 5.4 5.1 4.6 4.7 5.7 5.4 4.5 4.4 5.0 4.6 4.8 4.4 4.8 4.5 4.3 4.4 4.8 5.2 4.8 5.6 6.1 6.4 6.1 5.1
0.2 0.4 0.6 0.4 0.1 1.2 4.5 4.9 4.7 5.0 4.4 4.8 4.4 5.2 4.8 5.0 4.8 4.3 4.8 4.6 4.2 5.0 4.2 4.3 4.4 5.3 5.4 4.5 5.0 5.1 5.1 5.8
3.1 2.5 1.1 1.0 0.4 0.4 1.9 4.6 4.3 5.1 6.4 5.3 4.7 4.8 4.9 4.8 4.0 4.0 4.9 4.6 4.4 4.5 4.6 3.9 4.1 4.2 6.2 6.1 4.7 4.2 4.4 4.8
3.6 4.7 2.5 2.2 0.9 0.6 -0.1 0.9 4.0 5.3 5.1 6.5 5.7 4.9 4.6 5.0 4.2 4.3 4.4 4.6 4.8 4.7 3.9 4.5 4.2 4.1 5.0 4.9 5.5 5.2 4.8 4.4
5.3 6.4 4.8 3.0 3.1 2.1 2.9 2.3 2.2 3.9 6.1 6.1 6.0 5.4 4.5 5.0 5.2 4.9 4.8 4.7 4.5 4.1 4.6 3.9 4.5 3.8 4.6 3.7 4.2 4.4 4.3 4.7
7.3 7.7 6.6 3.8 2.8 2.4 2.5 2.8 3.7 2.4 4.4 6.4 7.0 6.2 5.3 5.0 5.5 5.2 4.2 4.9 4.7 4.7 4.6 4.9 4.9 4.1 4.3 4.0 4.6 4.4 3.9 3.4
7.5 6.3 5.6 4.7 3.2 3.3 2.5 2.3 2.8 1.9 1.8 3.7 5.7 6.9 5.8 5.1 6.1 5.8 5.1 5.1 5.0 4.3 5.0 4.9 5.0 4.6 4.2 4.5 3.8 3.3 4.0 4.1
7.2 5.9 5.5 5.2 4.4 4.2 6.0 5.0 4.6 1.8 1.3 2.1 4.0 6.2 6.5 5.2 5.5 6.1 5.9 6.0 5.3 5.3 6.0 6.9 6.1 5.9 5.4 3.9 4.4 3.4 4.0 4.7
6.0 5.9 5.7 5.1 5.6 5.3 6.1 5.6 4.0 3.0 2.2 2.2 2.4 5.0 6.2 6.3 5.2 5.9 6.5 6.4 5.8 5.8 6.6 6.4 6.3 6.0 5.3 3.8 4.3 6.0 4.5 3.4
5.1 5.0 4.9 4.7 5.6 6.2 6.3 5.6 6.6 5.8 2.8 2.6 5.4 5.1 5.6 6.3 5.7 5.1 5.0 5.7 5.8 5.4 5.5 5.4 5.7 5.9 5.8 5.6 4.5 4.4 4.3 4.3
5.2 5.0 5.2 5.3 5.6 5.7 5.5 5.5 5.1 5.8 4.6 5.5 5.4 3.7 2.7 6.1 5.4 4.3 4.7 5.3 6.1 5.0 4.9 5.2 5.1 5.3 5.5 5.4 5.9 6.6 5.4 5.3
Wind_Speed
7 9 9 8 10 11 11 12 13 15 16 17 18 19 19 18 17 16 13 13 12 11 10 11 11 10 10 8 6 3 7 12
8 8 12 11 8 11 12 12 12 13 16 17 18 19 19 19 18 16 15 14 13 13 11 11 10 9 8 7 7 4 4 6
3 7 8 11 12 12 13 13 13 13 14 16 15 11 14 16 15 16 15 15 15 14 13 13 12 10 8 7 6 5 5 8
5 4 7 8 10 11 14 12 10 9 10 11 11 12 13 14 15 19 17 16 15 14 14 14 13 11 9 8 6 5 7 9
7 7 7 6 6 7 7 10 10 10 12 11 12 13 14 13 11 12 12 15 10 12 11 8 11 11 10 11 11 9 9 11
9 5 4 8 4 4 6 6 8 6 12 14 10 4 5 6 6 11 11 12 9 10 8 10 11 12 13 10 11 9 11 12
11 9 2 5 7 5 5 8 8 9 12 15 13 7 7 5 7 10 10 13 9 6 7 7 6 9 11 10 8 8 13 11
22 23 18 6 7 8 5 4 7 10 12 15 18 12 5 7 8 8 8 13 12 11 6 7 5 5 6 7 6 9 12 12
20 22 21 20 7 8 9 7 6 5 9 18 20 16 6 8 8 8 8 14 13 10 6 6 5 5 6 5 6 7 8 12
21 19 21 21 19 7 7 8 8 9 6 12 20 19 15 9 8 7 10 10 8 7 5 5 5 5 4 5 5 6 9 12
21 21 20 21 21 15 9 10 10 9 7 7 12 16 14 11 9 7 11 8 6 7 4 5 4 4 4 4 5 5 6 10
17 17 19 20 14 13 11 8 7 8 11 9 11 10 12 10 7 8 9 8 8 8 7 4 4 4 4 4 4 5 4 6
19 19 19 14 12 12 12 10 10 6 7 14 13 12 11 13 7 9 10 11 12 11 6 8 4 5 3 1 1 4 5 6
19 18 18 16 11 11 10 11 9 5 8 11 16 16 14 15 13 10 13 10 11 11 9 4 5 6 5 3 2 3 2 5
19 19 18 18 16 12 11 10 8 5 5 10 14 19 18 17 16 13 10 11 11 12 10 12 7 5 6 4 3 4 2 3
19 19 18 16 17 13 14 11 12 8 9 9 13 19 19 18 18 15 13 8 11 11 9 6 7 7 2 5 3 4 4 1
18 21 19 18 17 14 13 15 11 10 9 13 14 15 22 21 21 19 18 11 11 12 10 11 7 7 7 3 4 2 2 2
18 22 19 17 16 16 15 17 14 11 11 11 10 8 15 21 22 19 18 14 14 11 12 14 12 8 5 5 5 8 5 3
16 18 19 18 17 15 15 17 13 13 14 12 12 7 16 24 22 20 17 17 15 13 11 12 12 11 9 6 4 6 4 3
18 19 19 18 16 15 12 11 7 9 7 6 6 3 9 23 21 19 18 16 14 12 8 9 9 9 10 8 7 8 5 6
Wind_Direction
154 162 169 175 184 184 189 191 186 186 185 182 176 174 175 175 176 175 172 165 160 160 160 155 157 157 160 169 159 142 124 159
174 182 170 177 187 194 201 203 196 197 192 188 183 178 178 177 180 176 173 168 165 163 164 161 159 158 167 164 163 166 191 169
229 177 183 181 182 194 202 208 205 202 201 194 181 175 175 177 178 176 176 171 169 168 169 165 159 160 164 168 172 189 177 136
349 251 193 189 187 184 184 195 199 198 202 188 179 178 173 176 180 181 180 176 172 173 173 168 161 165 170 172 189 205 167 130
350 9 296 204 204 164 190 183 187 196 205 196 190 187 180 177 176 177 166 170 166 169 166 175 183 174 182 189 189 198 158 132
327 2 334 294 225 193 187 190 190 190 197 195 199 199 186 173 171 166 166 170 167 172 176 189 198 200 187 198 191 177 153 148
320 310 267 258 276 245 223 187 191 196 190 197 198 206 194 171 169 168 170 173 174 178 182 196 204 204 184 182 183 146 141 155
349 349 316 245 243 261 253 222 190 195 194 196 195 202 192 175 169 171 171 179 181 180 184 197 199 187 184 179 182 163 147 154
344 342 336 338 243 238 253 244 233 202 197 192 194 195 181 174 175 178 177 180 182 181 185 185 178 178 187 182 172 165 154 157
339 338 335 332 338 275 228 240 244 231 210 189 194 194 175 176 180 185 178 172 179 175 170 175 189 178 171 196 179 177 167 161
338 335 334 332 330 324 284 239 232 241 214 195 181 190 179 181 182 181 174 175 168 177 175 167 174 183 191 194 193 185 174 166
334 330 328 328 326 327 323 295 245 234 230 217 183 185 186 183 180 170 172 179 179 180 173 174 159 183 192 185 198 200 183 176
332 328 327 326 325 324 330 322 322 269 233 219 216 184 188 192 182 176 176 183 186 182 172 175 179 168 133 63 282 199 184 187
321 323 324 317 312 311 299 298 291 297 298 238 218 205 189 196 192 188 188 184 182 178 175 147 177 166 163 122 175 310 298 203
321 320 316 309 307 303 302 298 296 307 304 287 231 220 198 197 195 190 177 176 182 181 175 174 178 179 168 147 152 212 166 220
318 315 310 305 306 296 294 285 286 287 292 283 290 234 209 198 202 186 183 184 175 180 183 176 168 182 187 186 151 144 177 241
321 317 314 309 304 298 289 283 277 284 280 279 270 270 225 199 201 200 197 192 191 184 184 190 201 180 195 152 203 134 154 143
325 323 315 309 300 298 287 278 269 269 270 271 266 280 261 209 197 196 190 191 192 189 185 192 202 205 184 166 184 210 210 165
328 326 318 314 304 302 292 275 267 259 265 265 254 268 302 210 190 188 189 186 185 186 186 187 193 204 196 200 170 197 164 182
337 338 329 323 320 311 306 308 282 250 254 274 194 38 344 225 186 182 182 177 171 174 186 188 189 197 204 191 205 204 192 195